Location: Unspecified
(0.0000°N, 0.0000°E)
Time: 02:21:46
(UTC+00:00)

Envisat - Pass Details

Date: 19 October 2020
Orbit: 764 x 766 km, 98.1° (Epoch: 25 October)

Event Time Altitude Azimuth Distance (km) Brightness Sun altitude
Rises 17:59:47 0° 180° (S) 3,231 6.4 -3.7°
Reaches altitude 10° 18:02:11 10° 187° (S) 2,302 5.7 -4.3°
Maximum altitude 18:07:00 44° 258° (WSW) 1,052 4.5 -5.4°
Drops below altitude 10° 18:11:47 10° 329° (NNW) 2,292 5.8 -6.6°
Sets 18:14:10 0° 336° (NNW) 3,215 6.4 -7.2°
